GW3137 Weather Reports


time (UTC)temp
F
wind
direction
speed
knots
gust
knots
rain 1hr
in
rain 24hr
in
rain mn
in
humidity
%
barometer
mb
20260905140704 54 112 0.0 0.9 0.00 0.00 0.00 87 1017.3
20260905133705 54 112 0.0 0.0 0.00 0.00 0.00 88 1017.2
20260905133203 54 112 0.0 0.0 0.00 0.00 0.00 88 1017.2
20260905130704 53 112 0.0 0.0 0.00 0.00 0.00 90 1017.2
20260905130204 53 112 0.0 0.0 0.00 0.00 0.00 89 1017.2
20260905123204 53 112 0.0 0.0 0.00 0.00 0.00 89 1017.0
20260905120703 53 112 0.0 0.0 0.00 0.00 0.00 90 1017.0
20260905120204 53 112 0.0 0.0 0.00 0.00 0.00 90 1017.0
20260905113703 53 112 0.0 0.0 0.00 0.00 0.00 90 1016.9
20260905113203 53 112 0.0 0.0 0.00 0.00 0.00 89 1016.9
20260905110204 53 112 0.0 0.0 0.00 0.00 0.00 89 1016.8
20260905103704 53 112 0.0 0.0 0.00 0.00 0.00 88 1016.6
20260905103203 53 112 0.0 0.0 0.00 0.00 0.00 89 1016.5
20260905100704 54 112 0.0 0.0 0.00 0.00 0.00 88 1016.5
20260905100204 54 112 0.0 0.9 0.00 0.00 0.00 87 1016.5
20260905093704 54 113 0.0 0.0 0.00 0.00 0.00 88 1016.5
20260905090204 54 113 0.0 0.9 0.00 0.00 0.00 87 1016.5
20260905083704 55 130 0.0 0.0 0.00 0.00 0.00 86 1016.3
20260905083205 55 130 0.0 0.0 0.00 0.00 0.00 86 1016.3
20260905080704 55 130 0.0 0.0 0.00 0.00 0.00 87 1016.2
20260905073704 57 130 0.0 0.0 0.00 0.00 0.00 84 1016.2
20260905073204 57 130 0.0 2.6 0.00 0.00 0.00 84 1016.1
20260905070704 56 52 0.0 0.0 0.00 0.00 0.00 86 1016.0
20260905070204 57 52 0.0 0.0 0.00 0.00 0.00 86 1016.0
20260905063704 57 52 0.0 0.0 0.00 0.02 0.00 85 1015.8
20260905063204 57 52 0.0 0.0 0.00 0.02 0.00 85 1015.8
20260905060704 58 52 0.0 0.9 0.00 0.03 0.00 84 1015.6
20260905060204 58 52 0.0 0.0 0.00 0.03 0.00 83 1015.5
20260905053704 60 52 0.0 0.0 0.00 0.03 0.00 80 1015.5
20260905053203 60 52 0.0 2.6 0.00 0.03 0.00 80 1015.5
20260905050704 59 52 0.0 0.0 0.00 0.03 0.00 85 1015.5
20260905050204 59 52 0.0 0.0 0.00 0.03 0.00 84 1015.5
20260905043703 60 52 0.0 1.7 0.00 0.03 0.00 83 1015.6
20260905043204 60 52 0.9 6.1 0.00 0.03 0.00 83 1015.5
20260905040704 61 57 2.6 4.3 0.00 0.03 0.00 82 1015.5
20260905040204 61 69 1.7 2.6 0.00 0.03 0.00 81 1015.5
20260905033704 61 53 0.9 2.6 0.00 0.03 0.00 81 1015.4
20260905033203 61 69 0.0 2.6 0.00 0.03 0.00 81 1015.5
20260905030204 62 63 0.9 4.3 0.00 0.03 0.00 79 1015.1
20260905023704 62 306 0.0 0.9 0.00 0.03 0.00 77 1014.9
20260905023204 62 306 0.0 7.0 0.00 0.03 0.00 77 1014.9
20260905020704 64 68 2.6 5.2 0.00 0.03 0.00 72 1014.8
20260905020203 64 69 2.6 5.2 0.00 0.03 0.00 72 1014.8
20260905013703 64 71 1.7 7.0 0.00 0.04 0.00 69 1014.8
20260905013204 64 93 2.6 10.4 0.00 0.04 0.00 69 1014.7
20260905010204 64 71 3.5 8.7 0.00 0.14 0.00 72 1014.3
20260905003703 66 70 4.3 7.8 0.00 0.21 0.00 71 1014.2
20260905003204 66 53 4.3 10.4 0.00 0.21 0.00 70 1014.2
20260905000704 67 70 4.3 10.4 0.00 0.21 0.00 66 1014.0
20260905000204 67 84 4.3 10.4 0.00 0.21 0.00 65 1014.0
20260904233704 70 258 1.7 2.6 0.00 0.21 0.00 53 1013.9
20260904230704 71 128 0.9 2.6 0.00 0.21 0.00 54 1013.6
20260904230204 71 351 1.7 8.7 0.00 0.21 0.00 55 1013.5
20260904223704 71 346 1.7 6.1 0.00 0.21 0.00 57 1013.3
20260904223204 70 13 1.7 7.8 0.00 0.21 0.00 60 1013.2
20260904220703 73 335 1.7 7.0 0.00 0.21 0.00 54 1013.3
20260904213704 73 322 0.9 2.6 0.00 0.21 0.00 55 1013.1
20260904213204 73 359 0.9 6.1 0.00 0.21 0.00 56 1013.1
20260904210704 71 190 1.7 5.2 0.00 0.21 0.00 58 1013.0
20260904210204 71 259 2.6 7.0 0.00 0.21 0.00 57 1013.1
20260904203704 69 323 0.9 2.6 0.00 0.21 0.00 60 1013.2
20260904203204 69 298 1.7 7.8 0.00 0.21 0.00 60 1013.2
20260904200704 69 255 0.9 5.2 0.00 0.21 0.00 62 1013.3
20260904200204 68 356 1.7 5.2 0.00 0.21 0.00 63 1013.3
20260904193704 69 266 0.9 2.6 0.00 0.21 0.00 64 1013.3
20260904193204 68 54 1.7 5.2 0.00 0.21 0.00 64 1013.3
20260904190703 66 301 2.6 8.7 0.00 0.21 0.00 70 1013.4
20260904190203 65 19 1.7 6.1 0.00 0.21 0.00 71 1013.4
20260904183704 63 317 0.9 2.6 0.00 0.21 0.00 74 1013.4
20260904183204 63 162 0.9 2.6 0.00 0.21 0.00 76 1013.5
20260904180704 61 179 0.0 1.7 0.00 0.21 0.00 79 1013.5
20260904180203 61 199 0.9 5.2 0.00 0.21 0.00 81 1013.5
20260904173703 61 314 1.7 2.6 0.00 0.21 0.00 84 1013.6
20260904170204 59 288 0.9 1.7 0.00 0.21 0.00 87 1013.5
20260904163703 58 306 0.9 1.7 0.00 0.21 0.00 88 1013.5
20260904163204 58 306 0.0 1.7 0.00 0.21 0.00 88 1013.5
20260904160703 58 306 0.9 1.7 0.00 0.21 0.00 89 1013.4
20260904153704 58 72 0.0 0.9 0.00 0.21 0.00 87 1013.2
20260904150704 56 86 0.0 0.9 0.00 0.21 0.00 91 1013.0
20260904143704 55 86 0.0 0.0 0.00 0.21 0.00 92 1012.6
20260904143203 55 86 0.0 1.7 0.00 0.21 0.00 92 1012.6